Weather Roundup
Issued by NWS Springfield, MO

Home | Current Version | Previous Version | Graphics & Text | Print | Product List | Glossary On
Versions: 1 2 3 4 5 6 7 8 9 10 11 12 13 14 15 16 17 18 19 20 21 22 23 24 25 26 27 28 29 30 31 32 33 34 35 36 37 38 39 40 41 42 43 44 45 46 47 48 49 50
000
NZUS99 KSGF 262207
HRRSGF

HOURLY WEATHER
NATIONAL WEATHER SERVICE SPRINGFIELD MO
500 PM CDT WED JUN 26 2019

......SGF CWA......

CITY           SKY/WX    TMP DP  RH WIND       PRES   REMARKS
SPRINGFIELD    PTSUNNY   75  65  70 S10       30.10F
JOPLIN         TSTM      82  72  71 SW7       30.08F
WEST PLAINS    MOSUNNY   75  62  64 SW8       30.16R
ROLLA          CLOUDY    79  64  60 NW7       30.11R
OSAGE BEACH    SUNNY     78  68  71 S6        30.10F
BRANSON        PTSUNNY   68  63  83 S5        30.15F

......SURROUNDING SGF CWA......

CITY           SKY/WX    TMP DP  RH WIND       PRES   REMARKS
CHANUTE        MOSUNNY   91  75  59 S16G23    30.02F HX 101
PARSONS        MOSUNNY   89  75  63 S10       30.04F HX  99
COFFEYVILLE    MOSUNNY   89  74  60 S15G23    30.02F HX  98
EMPORIA        PTSUNNY   88  75  65 SE12      30.02S HX  97
GROVE OK       SUNNY     88  68  51 SW12      30.09F HX  91
ROGERS AR      PTSUNNY   77  68  73 SE14      30.15R
SILOAM SPRINGS MOSUNNY   87  71  58 MISG      30.13F HX  93
HARRISON AR    LGT RAIN  67  65  93 S5        30.15F

......KANSAS AND MISSOURI......

CITY           SKY/WX    TMP DP  RH WIND       PRES   REMARKS
KANSAS CTY INT PTSUNNY   85  67  54 S14G23    30.00F
DOWNTOWN KC    SUNNY     88  63  43 S12       30.00F
COLUMBIA       SUNNY     82  67  60 S13       30.05F
SEDALIA        SUNNY     79  69  71 S16       30.06S
ST JOSEPH      SUNNY     85  67  54 S12       29.98S
ST LOUIS       TSTM      72  70  94 S10       30.08F
SPIRIT OF STL  MOSUNNY   71  67  87 S10       30.07F
KIRKSVILLE     SUNNY     83  69  62 S8        30.03S
WICHITA        MOSUNNY   92  70  48 S15G25    30.00F HX  97
TOPEKA         SUNNY     86  68  54 S12       30.01F
OLATHE         SUNNY     85  64  49 S9        30.03F

......TENNESSEE......

CITY           SKY/WX    TMP DP  RH WIND       PRES   REMARKS
MEMPHIS        FAIR      88  72  58 W13G21    30.11R HX  94
NASHVILLE      PTSUNNY   82  72  71 SE8       30.10F

......ARKANSAS.......

CITY           SKY/WX    TMP DP  RH WIND       PRES   REMARKS
FAYETTEVILLE   MOSUNNY   86  72  62 S12G17    30.13F HX  92
FT SMITH       MOSUNNY   90  71  53 SW12      30.08F HX  96
LITTLE ROCK    MOSUNNY   88  69  53 W13       30.11F HX  92

......OKLAHOMA.......

CITY           SKY/WX    TMP DP  RH WIND       PRES   REMARKS
TULSA          MOSUNNY   90  71  53 S18       30.03F HX  96
PONCA CITY     SUNNY     92  71  50 S10G20    30.02F HX  98
MCALESTER      SUNNY     87  69  54 S8        30.09F HX  91
OKLAHOMA CITY  MOSUNNY   87  70  56 S16G23    30.06F HX  92

......IOWA............

CITY           SKY/WX    TMP DP  RH WIND       PRES   REMARKS
DES MOINES     PTSUNNY   84  62  47 S6        29.99S
QUAD CITIES    FAIR      90  68  48 SW8       30.00R HX  94

......ILLINOIS........

CITY           SKY/WX    TMP DP  RH WIND       PRES   REMARKS
QUINCY         SUNNY     83  68  60 S7        30.01F
CHICAGO        PTSUNNY   87  62  43 NE10      30.02F




USA.gov is the U.S. government's official web portal to all federal, state and local government web resources and services.